Weather History for Smyrna, TN

Change the Weather History Date:

Sunday, April 22, 2012

  Actual Average Record
Temperature  
Mean Temperature 54 °F -  
Max Temperature 63 °F 67 °F 83 °F (2008)
Min Temperature 45 °F 50 °F 36 °F (2009)
Degree Days  
Heating Degree Days 11    
Growing Degree Days 4 (Base 50)    
Moisture  
Dew Point 41 °F    
Average Humidity 68    
Maximum Humidity 93    
Minimum Humidity 40    
Precipitation  
Precipitation 0.00 in - - ()
Sea Level Pressure  
Sea Level Pressure 29.88 in    
Wind  
Wind Speed 10 mph (North)    
Max Wind Speed 18 mph    
Max Gust Speed 25 mph    
Visibility 10 miles    
Events Rain    
Averages and records for this station are not official NWS values.
T = Trace of Precipitation, MM = Missing Value Source: NWS Daily Summary

Daily Weather History Graph

Daily Weather History Graph

Search for Another Location

Airport:

Trip Planner

Search our weather history database for the weather conditions in past years. The results will help you decide how hot, cold, wet, or windy it might be!

Date:

Astronomy

Apr. 22, 2012 Rise Set
Actual Time 6:03 AM CDT 7:26 PM CDT
Civil Twilight 5:36 AM CDT 7:53 PM CDT
Nautical Twilight 5:04 AM CDT 8:25 PM CDT
Astronomical Twilight 4:30 AM CDT 8:59 PM CDT
Moon 6:37 AM CDT (4/22) 8:58 PM CDT (4/22)
Length of Visible Light 14h 16m
Length of Day
13h 22m
New Moon, 2% of the Moon is Illuminated
Apr 22
New Moon
Apr 29
First Quarter
May 5
Full
May 12
Last Quarter
May 20
New

Hourly Weather History & Observations

Time (CDT) Temp. Windchill Dew Point Humidity Pressure Visibility Wind Dir Wind Speed Gust Speed Precip Events Conditions
12:56 AM 50.0 °F - 45.0 °F 83% 29.92 in 10.0 mi North 8.1 mph - N/A   Overcast
1:56 AM 48.9 °F - 45.0 °F 86% 29.90 in 10.0 mi North 8.1 mph - N/A   Overcast
2:41 AM 48.2 °F - 44.6 °F 87% 29.90 in 10.0 mi North 9.2 mph - N/A   Overcast
2:56 AM 50.0 °F - 45.0 °F 83% 29.88 in 10.0 mi North 9.2 mph - N/A   Overcast
3:56 AM 48.9 °F - 43.0 °F 80% 29.88 in 10.0 mi North 9.2 mph - N/A   Mostly Cloudy
4:10 AM 48.2 °F - 42.8 °F 82% 29.89 in 10.0 mi North 5.8 mph - N/A   Scattered Clouds
4:17 AM 48.2 °F - 42.8 °F 82% 29.89 in 10.0 mi North 4.6 mph - N/A   Mostly Cloudy
4:56 AM 48.9 °F - 43.0 °F 80% 29.88 in 10.0 mi NW 5.8 mph - N/A   Overcast
5:56 AM 46.9 °F - 43.0 °F 86% 29.89 in 7.0 mi NW 9.2 mph - N/A   Overcast
6:13 AM 46.4 °F 43.5 °F 42.8 °F 87% 29.89 in 6.0 mi NNW 5.8 mph - N/A   Mostly Cloudy
6:56 AM 45.0 °F 39.7 °F 43.0 °F 93% 29.90 in 6.0 mi NNW 10.4 mph - N/A   Clear
7:56 AM 47.8 °F - 41.9 °F 80% 29.88 in 10.0 mi North 12.7 mph - N/A   Partly Cloudy
8:56 AM 52.0 °F - 38.8 °F 61% 29.88 in 10.0 mi North 12.7 mph - N/A   Partly Cloudy
9:56 AM 55.9 °F - 39.9 °F 55% 29.88 in 10.0 mi North 12.7 mph - N/A   Partly Cloudy
10:56 AM 57.9 °F - 38.8 °F 49% 29.87 in 10.0 mi NNE 12.7 mph - N/A   Partly Cloudy
11:56 AM 59.9 °F - 37.9 °F 44% 29.85 in 10.0 mi North 13.8 mph - N/A   Mostly Cloudy
12:56 PM 61.9 °F - 38.8 °F 43% 29.83 in 10.0 mi NNW 11.5 mph - N/A   Scattered Clouds
1:56 PM 63.0 °F - 37.9 °F 40% 29.83 in 10.0 mi North 13.8 mph 25.3 mph N/A   Partly Cloudy
2:56 PM 61.0 °F - 37.9 °F 42% 29.83 in 10.0 mi NNW 16.1 mph - N/A   Mostly Cloudy
3:56 PM 57.9 °F - 36.9 °F 45% 29.84 in 10.0 mi North 18.4 mph - N/A   Mostly Cloudy
4:56 PM 57.9 °F - 36.9 °F 45% 29.85 in 10.0 mi North 12.7 mph - N/A   Mostly Cloudy
5:56 PM 56.8 °F - 36.9 °F 47% 29.85 in 10.0 mi North 16.1 mph - N/A   Scattered Clouds
6:56 PM 52.0 °F - 38.8 °F 61% 29.87 in 10.0 mi NW 13.8 mph - N/A   Scattered Clouds
7:56 PM 48.9 °F - 41.9 °F 77% 29.90 in 8.0 mi North 6.9 mph - 0.00 in Rain Light Rain
8:56 PM 48.9 °F - 41.9 °F 77% 29.91 in 10.0 mi NNW 11.5 mph - 0.00 in   Clear
9:56 PM 48.9 °F - 41.0 °F 74% 29.91 in 10.0 mi NNW 11.5 mph - N/A   Scattered Clouds
10:56 PM 48.9 °F - 38.8 °F 68% 29.91 in 10.0 mi NNW 12.7 mph - 0.00 in   Scattered Clouds
11:56 PM 48.9 °F - 39.9 °F 71% 29.91 in 10.0 mi North 13.8 mph - 0.00 in   Mostly Cloudy